Strona główna
METAR-TAF:

METAR-TAF

Lotnisko :

Platforma wiertnicza

D15-fa-1, Holandia

Szerokość geograficzna: 54-19-32N, Długość geograficzna: 2-56-09E, wysokość: 36 m

Aktualna obserwacja pogody

Raport powstał 23 minut temu, godzina 08:25 UTC
Wiatr 31 kt od zachód
Temperatura 7°C
Wilgotność 70%
Ciśnienie 1011 hPa
Widzialność 10 km lub więcej

METAR: EHDV 190825Z AUTO 28031KT 9999 SCT022/// SCT025/// 07/02 Q1011

czas: 09:48 (08:48 UTC)


TAF: brakujący

Obserwacja i prognoza pogody dla ponad 4000 lotnisk (raport METAR i TAF).

Dostępne stacje oznaczono żółtymi i czerwonymi punktami na mapie.

Najedź kursorem aby zobaczyć nazwę stacji.

Kliknij aby zobaczyć obserwacje i prognozy pogody.

Aby zmienić mapę: kliknij na zielony przycisk z czarnym krzyżykiem, aby powiększyć; na zielony przycisk z myślnikiem, aby pomniejszyć; na zielone strzałki, aby przejść do map sąsiednich.


METAR-TAF: